When you browse on this site, cookies collect data to enhance your experience and personalize the content and advertising you see.
Visit our Privacy Policy to learn more. By continuing to use the site, you agree to this use of cookies and data.
  • In Slovakia
  • List of Countries
  • For 7 days
  • Water Temperature
  • Satellite Maps
  • Weather Map
  • Weather Widgets
  • user-avatar
    Login

    Hourly Weather Galata

    Today, 21 March, Thursday

    Time Temperature Precipitation Wind Pressure Humidity
    00:00 +7°C° 0 mm 4 mps 766 mmHg 77%
    01:00 +7°C° 0 mm 5 mps 766 mmHg 77%
    02:00 +5°C° 0 mm 6 mps 766 mmHg 75%
    03:00 +5°C° 0 mm 6 mps 766 mmHg 75%
    04:00 +4°C° 0 mm 6 mps 767 mmHg 75%
    05:00 +4°C° 0 mm 6 mps 767 mmHg 75%
    06:00 +5°C° 0 mm 6 mps 767 mmHg 72%
    07:00 +5°C° 0 mm 6 mps 767 mmHg 69%
    08:00 +7°C° 0 mm 5 mps 768 mmHg 64%
    09:00 +8°C° 0 mm 5 mps 768 mmHg 60%
    10:00 +9°C° 0 mm 5 mps 768 mmHg 56%
    11:00 +10°C° 0 mm 5 mps 768 mmHg 51%
    12:00 +11°C° 0 mm 4 mps 768 mmHg 50%
    13:00 +12°C° 0 mm 4 mps 768 mmHg 49%
    14:00 +13°C° 0 mm 4 mps 767 mmHg 47%
    15:00 +12°C° 0 mm 3 mps 767 mmHg 50%
    16:00 +11°C° 0 mm 3 mps 767 mmHg 53%
    17:00 +11°C° 0 mm 3 mps 766 mmHg 55%
    18:00 +10°C° 0 mm 3 mps 766 mmHg 59%
    19:00 +8°C° 0 mm 2 mps 767 mmHg 63%
    20:00 +8°C° 0 mm 1 mps 767 mmHg 67%
    21:00 +8°C° 0 mm 1 mps 767 mmHg 68%
    22:00 +8°C° 0 mm 1 mps 767 mmHg 70%
    23:00 +7°C° 0 mm 1 mps 767 mmHg 71%

    Tomorrow, 22 March, Friday

    Time Temperature Precipitation Wind Pressure Humidity
    00:00 +7°C° 0 mm 1 mps 767 mmHg 71%
    01:00 +6°C° 0 mm 2 mps 767 mmHg 71%
    02:00 +6°C° 0 mm 2 mps 767 mmHg 72%
    03:00 +6°C° 0 mm 2 mps 767 mmHg 71%
    04:00 +6°C° 0 mm 2 mps 766 mmHg 70%
    05:00 +6°C° 0 mm 2 mps 766 mmHg 70%
    06:00 +7°C° 0 mm 2 mps 766 mmHg 68%
    07:00 +8°C° 0 mm 2 mps 766 mmHg 67%
    08:00 +9°C° 0 mm 2 mps 766 mmHg 65%
    09:00 +10°C° 0 mm 2 mps 766 mmHg 60%
    10:00 +13°C° 0 mm 2 mps 766 mmHg 56%
    11:00 +15°C° 0 mm 2 mps 766 mmHg 51%
    12:00 +15°C° 0 mm 2 mps 766 mmHg 50%
    13:00 +15°C° 0 mm 2 mps 765 mmHg 49%
    14:00 +16°C° 0 mm 2 mps 765 mmHg 48%
    15:00 +15°C° 0 mm 2 mps 764 mmHg 50%
    16:00 +15°C° 0 mm 2 mps 764 mmHg 52%
    17:00 +15°C° 0 mm 2 mps 763 mmHg 54%
    18:00 +13°C° 0 mm 2 mps 763 mmHg 58%
    19:00 +12°C° 0 mm 2 mps 763 mmHg 63%
    20:00 +10°C° 0 mm 2 mps 763 mmHg 67%
    21:00 +10°C° 0 mm 2 mps 763 mmHg 66%
    22:00 +10°C° 0 mm 2 mps 763 mmHg 66%
    23:00 +10°C° 0 mm 2 mps 763 mmHg 66%

    Day after tomorrow, 23 March, Saturday

    Time Temperature Precipitation Wind Pressure Humidity
    00:00 +10°C° 0 mm 3 mps 763 mmHg 65%
    01:00 +10°C° 0 mm 3 mps 763 mmHg 64%
    02:00 +11°C° 0 mm 4 mps 763 mmHg 63%
    03:00 +10°C° 0 mm 4 mps 763 mmHg 69%
    04:00 +10°C° 0 mm 4 mps 762 mmHg 75%
    05:00 +8°C° 0 mm 4 mps 762 mmHg 82%
    06:00 +9°C° 0 mm 3 mps 762 mmHg 78%
    07:00 +10°C° 0 mm 3 mps 762 mmHg 74%
    08:00 +10°C° 0 mm 3 mps 762 mmHg 69%
    09:00 +11°C° 0 mm 3 mps 763 mmHg 66%
    10:00 +11°C° 0 mm 3 mps 763 mmHg 62%
    11:00 +12°C° 0 mm 4 mps 763 mmHg 58%
    12:00 +12°C° 0 mm 4 mps 762 mmHg 55%
    13:00 +11°C° 0 mm 4 mps 762 mmHg 52%
    14:00 +11°C° 0 mm 4 mps 762 mmHg 49%
    15:00 +12°C° 0 mm 4 mps 762 mmHg 46%
    16:00 +12°C° 0 mm 3 mps 761 mmHg 43%
    17:00 +12°C° 0 mm 3 mps 761 mmHg 41%
    18:00 +11°C° 0 mm 3 mps 761 mmHg 45%
    19:00 +9°C° 0 mm 2 mps 762 mmHg 49%
    20:00 +9°C° 0 mm 1 mps 762 mmHg 53%
    21:00 +7°C° 0 mm 2 mps 762 mmHg 50%
    22:00 +7°C° 0 mm 2 mps 762 mmHg 47%
    23:00 +5°C° 0 mm 3 mps 762 mmHg 43%

    24 March, Sunday

    Time Temperature Precipitation Wind Pressure Humidity
    00:00 +5°C° 0 mm 3 mps 762 mmHg 45%
    01:00 +5°C° 0 mm 3 mps 762 mmHg 47%
    02:00 +4°C° 0 mm 4 mps 762 mmHg 48%
    03:00 +4°C° 0 mm 4 mps 762 mmHg 51%
    04:00 +4°C° 0 mm 3 mps 762 mmHg 53%
    05:00 +3°C° 0 mm 3 mps 761 mmHg 55%
    06:00 +4°C° 0 mm 3 mps 762 mmHg 54%
    07:00 +5°C° 0 mm 3 mps 762 mmHg 54%
    08:00 +7°C° 0 mm 3 mps 762 mmHg 53%
    09:00 +8°C° 0 mm 3 mps 762 mmHg 49%
    10:00 +9°C° 0 mm 3 mps 762 mmHg 45%
    11:00 +10°C° 0 mm 3 mps 762 mmHg 41%
    12:00 +11°C° 0 mm 3 mps 762 mmHg 40%
    13:00 +12°C° 0 mm 3 mps 761 mmHg 38%
    14:00 +13°C° 0 mm 3 mps 761 mmHg 37%
    15:00 +12°C° 0 mm 3 mps 761 mmHg 41%
    16:00 +11°C° 0 mm 3 mps 760 mmHg 45%
    17:00 +11°C° 0 mm 3 mps 760 mmHg 50%
    18:00 +9°C° 0 mm 3 mps 760 mmHg 57%
    19:00 +8°C° 0 mm 3 mps 760 mmHg 65%
    20:00 +7°C° 0 mm 2 mps 760 mmHg 73%
    21:00 +6°C° 0 mm 2 mps 760 mmHg 74%
    22:00 +6°C° 0 mm 2 mps 760 mmHg 75%
    23:00 +6°C° 0 mm 2 mps 760 mmHg 76%

    25 March, Monday

    Time Temperature Precipitation Wind Pressure Humidity
    00:00 +6°C° 0 mm 2 mps 760 mmHg 76%
    01:00 +6°C° 0 mm 2 mps 759 mmHg 76%
    02:00 +5°C° 0 mm 2 mps 759 mmHg 75%
    03:00 +5°C° 0 mm 2 mps 759 mmHg 74%
    04:00 +5°C° 0 mm 2 mps 758 mmHg 73%
    05:00 +5°C° 0 mm 2 mps 758 mmHg 72%
    06:00 +6°C° 0 mm 2 mps 758 mmHg 68%
    07:00 +7°C° 0 mm 2 mps 758 mmHg 64%
    08:00 +8°C° 0 mm 2 mps 758 mmHg 60%
    09:00 +10°C° 0 mm 3 mps 758 mmHg 54%
    10:00 +12°C° 0 mm 3 mps 757 mmHg 48%
    11:00 +14°C° 0 mm 4 mps 757 mmHg 43%
    12:00 +15°C° 0 mm 4 mps 757 mmHg 41%
    13:00 +17°C° 0 mm 4 mps 756 mmHg 39%
    14:00 +17°C° 0 mm 5 mps 756 mmHg 37%
    15:00 +17°C° 0 mm 5 mps 755 mmHg 41%
    16:00 +16°C° 0 mm 5 mps 755 mmHg 44%
    17:00 +15°C° 0 mm 5 mps 754 mmHg 48%
    18:00 +14°C° 0 mm 4 mps 755 mmHg 54%
    19:00 +12°C° 0 mm 4 mps 755 mmHg 60%
    20:00 +11°C° 0 mm 3 mps 755 mmHg 66%
    21:00 +10°C° 0.1 mm 4 mps 755 mmHg 70%
    22:00 +10°C° 0.1 mm 4 mps 755 mmHg 75%
    23:00 +8°C° 0.1 mm 4 mps 755 mmHg 79%

    26 March, Tuesday

    Time Temperature Precipitation Wind Pressure Humidity
    00:00 +7°C° 0 mm 4 mps 755 mmHg 83%
    01:00 +7°C° 0 mm 4 mps 755 mmHg 87%
    02:00 +6°C° 0 mm 4 mps 755 mmHg 91%
    03:00 +6°C° 0 mm 4 mps 755 mmHg 90%
    04:00 +6°C° 0 mm 4 mps 755 mmHg 89%
    05:00 +6°C° 0 mm 4 mps 755 mmHg 88%
    06:00 +6°C° 0 mm 4 mps 755 mmHg 85%
    07:00 +7°C° 0 mm 4 mps 755 mmHg 82%
    08:00 +7°C° 0 mm 4 mps 755 mmHg 79%
    09:00 +9°C° 0 mm 3 mps 755 mmHg 70%
    10:00 +10°C° 0 mm 3 mps 755 mmHg 61%
    11:00 +12°C° 0 mm 2 mps 754 mmHg 52%
    12:00 +13°C° 0 mm 2 mps 754 mmHg 51%
    13:00 +13°C° 0 mm 2 mps 753 mmHg 50%
    14:00 +13°C° 0 mm 2 mps 753 mmHg 48%
    15:00 +12°C° 0 mm 3 mps 752 mmHg 48%
    16:00 +12°C° 0 mm 3 mps 752 mmHg 48%
    17:00 +12°C° 0 mm 4 mps 752 mmHg 48%
    18:00 +10°C° 0 mm 5 mps 752 mmHg 50%
    19:00 +9°C° 0 mm 5 mps 752 mmHg 51%
    20:00 +8°C° 0 mm 6 mps 752 mmHg 53%
    21:00 +8°C° 0 mm 7 mps 752 mmHg 53%
    22:00 +6°C° 0 mm 7 mps 751 mmHg 53%
    23:00 +6°C° 0 mm 8 mps 751 mmHg 54%
    Show more